CW2433 Weather Reports


Display with metric or nautical units.
time (UTC)temp
F
wind
direction
speed
MPH
gust
MPH
rain 1hr
in
rain 24hr
in
rain mn
in
humidity
%
barometer
mb
20260510121009 43 13 1.0 2.0 0.00 0.00 0.00 78 1022.8
20260510120509 43 13 1.0 2.0 0.00 0.00 0.00 78 1022.7
20260510120010 43 14 0.0 2.0 0.00 0.00 0.00 78 1022.7
20260510115009 42 14 0.0 0.0 0.00 0.00 0.00 78 1022.5
20260510114009 42 10 0.0 0.0 0.00 0.00 0.00 77 1022.5
20260510113509 42 13 0.0 0.0 0.00 0.00 0.00 77 1022.4
20260510112509 42 13 0.0 0.0 0.00 0.00 0.00 76 1022.3
20260510112009 42 13 0.0 0.0 0.00 0.00 0.00 76 1022.4
20260510111510 42 13 0.0 2.0 0.00 0.00 0.00 76 1022.4
20260510111010 42 13 0.0 2.0 0.00 0.00 0.00 75 1022.3
20260510110509 42 13 1.0 2.0 0.00 0.00 0.00 74 1022.3
20260510110010 42 13 0.0 0.0 0.00 0.00 0.00 73 1022.3
20260510105010 42 13 0.0 0.0 0.00 0.00 0.00 72 1022.3
20260510104510 42 13 0.0 0.0 0.00 0.00 0.00 71 1022.3
20260510104010 42 13 0.0 0.0 0.00 0.00 0.00 71 1022.3
20260510103510 42 13 0.0 0.0 0.00 0.00 0.00 71 1022.3
20260510103010 42 13 0.0 0.0 0.00 0.00 0.00 71 1022.2
20260510100010 43 13 0.0 0.0 0.00 0.00 0.00 70 1021.7
20260510095010 43 13 0.0 0.0 0.00 0.00 0.00 70 1021.3
20260510094510 43 13 0.0 0.0 0.00 0.00 0.00 68 1021.3
20260510093509 44 13 0.0 2.0 0.00 0.00 0.00 67 1021.1
20260510093009 44 13 0.0 2.0 0.00 0.00 0.00 67 1021.1
20260510092509 44 13 0.0 2.0 0.00 0.00 0.00 66 1021.1
20260510091509 44 34 0.0 0.0 0.00 0.00 0.00 65 1021.0
20260510091009 44 34 0.0 0.0 0.00 0.00 0.00 63 1020.9
20260510090509 45 34 0.0 1.0 0.00 0.00 0.00 63 1020.8
20260510090008 45 34 0.0 1.0 0.00 0.00 0.00 61 1020.7
20260510085509 45 34 0.0 1.0 0.00 0.00 0.00 60 1020.9
20260510085009 45 33 0.0 0.0 0.00 0.00 0.00 61 1021.0
20260510084509 46 34 0.0 0.0 0.00 0.00 0.00 61 1020.8
20260510084009 46 34 0.0 0.0 0.00 0.00 0.00 61 1020.6
20260510083509 46 34 0.0 0.0 0.00 0.00 0.00 60 1020.5
20260510083009 46 33 0.0 0.0 0.00 0.00 0.00 58 1020.5
20260510082509 47 34 0.0 0.0 0.00 0.00 0.00 58 1020.5
20260510082010 47 34 0.0 0.0 0.00 0.00 0.00 57 1020.5
20260510081509 47 34 0.0 0.0 0.00 0.00 0.00 56 1020.5
20260510081009 48 34 0.0 0.0 0.00 0.00 0.00 56 1020.4
20260510080509 48 34 0.0 0.0 0.00 0.00 0.00 57 1020.5
20260510080008 48 34 0.0 0.0 0.00 0.00 0.00 56 1020.4
20260510075508 48 34 0.0 1.0 0.00 0.00 0.00 56 1020.0
20260510074509 49 35 0.0 1.0 0.00 0.00 0.00 55 1019.9
20260510074009 49 34 0.0 2.0 0.00 0.00 0.00 54 1019.7
20260510073509 50 33 1.0 2.0 0.00 0.00 0.00 53 1019.7
20260510073009 50 40 0.0 2.0 0.00 0.00 0.00 53 1019.7
20260510072509 50 0 0.0 2.0 0.00 0.00 0.00 53 1019.6
20260510072009 50 34 1.0 2.0 0.00 0.00 0.00 52 1019.6
20260510071510 51 33 1.0 3.0 0.00 0.00 0.00 52 1019.6
20260510070009 51 17 1.0 3.0 0.00 0.00 0.00 51 1019.6
20260510065510 51 17 1.0 3.0 0.00 0.00 0.00 51 1019.6
20260510065010 52 27 1.0 3.0 0.00 0.00 0.00 49 1019.5
20260510064510 52 346 0.0 3.0 0.00 0.00 0.00 49 1019.4
20260510064009 52 0 1.0 3.0 0.00 0.00 0.00 48 1019.3
20260510063509 52 341 2.0 3.0 0.00 0.00 0.00 48 1019.4
20260510063010 53 339 0.0 2.0 0.00 0.00 0.00 48 1019.5
20260510062508 53 340 0.0 0.0 0.00 0.00 0.00 47 1019.4
20260510061510 54 344 0.0 0.0 0.00 0.00 0.00 45 1019.4
20260510060510 54 344 0.0 1.0 0.00 0.00 0.00 45 1018.9
20260510060010 54 353 0.0 3.0 0.00 0.00 0.00 45 1018.8
20260510055510 55 0 1.0 5.0 0.00 0.00 0.00 44 1018.4
20260510055010 55 8 2.0 5.0 0.00 0.00 0.00 44 1018.2
20260510054510 55 335 2.0 5.0 0.00 0.00 0.00 44 1018.1
20260510054010 55 343 2.0 6.0 0.00 0.00 0.00 43 1018.0
20260510053510 55 3 4.0 7.0 0.00 0.00 0.00 43 1017.9
20260510053010 56 343 2.0 9.0 0.00 0.00 0.00 43 1017.9
20260510052510 56 350 4.0 9.0 0.00 0.00 0.00 43 1017.8
20260510052010 56 338 4.0 7.0 0.00 0.00 0.00 43 1017.6
20260510051510 56 339 3.0 6.0 0.00 0.00 0.00 43 1017.7
20260510051010 56 335 3.0 6.0 0.00 0.00 0.00 43 1017.7
20260510050509 56 334 3.0 7.0 0.00 0.00 0.00 43 1017.5
20260510050010 57 342 3.0 7.0 0.00 0.00 0.00 43 1017.4
20260510045512 57 339 3.0 6.0 0.00 0.00 0.00 43 1017.4
20260510045009 57 344 2.0 5.0 0.00 0.00 0.00 42 1017.4
20260510044009 57 332 1.0 5.0 0.00 0.00 0.00 43 1017.3
20260510043510 58 0 2.0 6.0 0.00 0.00 0.00 42 1017.2
20260510043010 58 348 2.0 6.0 0.00 0.00 0.00 42 1017.0
20260510042009 58 335 3.0 6.0 0.00 0.00 0.00 42 1016.8
20260510041009 58 340 3.0 5.0 0.00 0.00 0.00 42 1016.6
20260510040509 58 0 2.0 6.0 0.00 0.00 0.00 42 1016.5
20260510040009 59 328 2.0 7.0 0.00 0.00 0.00 42 1016.5
20260510035509 59 5 3.0 7.0 0.00 0.00 0.00 42 1016.4
20260510035009 59 330 3.0 6.0 0.00 0.00 0.00 41 1016.3
20260510034510 59 329 2.0 6.0 0.00 0.00 0.00 41 1016.3
20260510034009 59 38 3.0 6.0 0.00 0.00 0.00 41 1016.3
20260510033010 60 337 2.0 5.0 0.00 0.00 0.00 41 1016.2
20260510032509 60 331 2.0 5.0 0.00 0.00 0.00 40 1016.1
20260510031510 61 337 2.0 3.0 0.00 0.00 0.00 40 1015.8
20260510031010 61 344 1.0 5.0 0.00 0.00 0.00 40 1015.6
20260510025509 62 344 2.0 5.0 0.00 0.00 0.00 39 1015.5
20260510025010 62 353 2.0 5.0 0.00 0.00 0.00 39 1015.3
20260510024510 63 350 2.0 5.0 0.00 0.00 0.00 39 1015.2
20260510024010 63 343 2.0 3.0 0.00 0.00 0.00 38 1015.0
20260510023510 63 356 2.0 5.0 0.00 0.00 0.00 38 1014.8
20260510021510 65 36 1.0 3.0 0.00 0.00 0.00 36 1014.2
20260510021010 65 355 2.0 3.0 0.00 0.00 0.00 36 1014.1
20260510020510 66 349 2.0 3.0 0.00 0.00 0.00 35 1014.1
20260510020010 66 348 1.0 5.0 0.00 0.00 0.00 35 1014.2
20260510015510 66 356 1.0 5.0 0.00 0.00 0.00 35 1014.0
20260510015010 67 357 2.0 3.0 0.00 0.00 0.00 35 1013.8
20260510014510 67 339 2.0 6.0 0.00 0.00 0.00 34 1013.7
20260510014010 67 356 3.0 7.0 0.00 0.00 0.00 34 1013.6
20260510013510 67 343 3.0 7.0 0.00 0.00 0.00 33 1013.4
20260510013010 68 356 5.0 9.0 0.00 0.00 0.00 33 1013.4
20260510012510 68 350 4.0 10.0 0.00 0.00 0.00 33 1013.2
20260510012010 68 354 4.0 12.0 0.00 0.00 0.00 33 1013.0
20260510011510 69 349 5.0 13.0 0.00 0.00 0.00 33 1013.0
20260510010509 69 350 7.0 14.0 0.00 0.00 0.00 34 1012.8
20260510005509 69 355 7.0 14.0 0.00 0.00 0.00 34 1012.8
20260510004509 69 349 4.0 12.0 0.00 0.00 0.00 36 1012.7
20260510003509 69 65 3.0 9.0 0.00 0.00 0.00 38 1012.7
20260510002509 70 9 3.0 9.0 0.00 0.00 0.00 38 1012.5
20260510001509 70 9 5.0 12.0 0.00 0.00 0.00 37 1012.5
20260510001009 70 9 4.0 13.0 0.00 0.00 0.00 37 1012.4
20260510000509 70 340 9.0 13.0 0.00 0.00 0.00 37 1012.4
20260510000009 70 350 6.0 12.0 0.00 0.00 0.00 38 1012.7
20260509235510 70 9 2.0 12.0 0.00 0.00 0.00 38 1012.7
20260509235009 70 327 3.0 12.0 0.00 0.00 0.00 38 1012.8
20260509234509 70 347 5.0 13.0 0.00 0.00 0.00 38 1012.8
20260509233509 70 2 5.0 15.0 0.00 0.00 0.00 40 1012.6
20260509232010 70 353 3.0 9.0 0.00 0.00 0.00 42 1012.4
20260509231509 70 340 3.0 9.0 0.00 0.00 0.00 43 1012.4
20260509230509 70 352 1.0 7.0 0.00 0.00 0.00 44 1012.4
20260509230010 70 343 2.0 7.0 0.00 0.00 0.00 44 1012.4
20260509225009 70 288 2.0 6.0 0.00 0.00 0.00 44 1012.4
20260509224510 70 291 2.0 6.0 0.00 0.00 0.00 45 1012.4
20260509224009 70 328 2.0 14.0 0.00 0.00 0.00 44 1012.2
20260509223509 71 319 3.0 14.0 0.00 0.00 0.00 44 1012.2
20260509223010 71 309 2.0 12.0 0.00 0.00 0.00 45 1012.2
20260509222510 71 282 2.0 8.0 0.00 0.00 0.00 45 1012.1
20260509222009 70 307 2.0 8.0 0.00 0.00 0.00 45 1011.9
20260509221510 70 339 2.0 9.0 0.00 0.00 0.00 45 1011.9
20260509221010 70 301 2.0 13.0 0.00 0.00 0.00 45 1011.9
20260509220510 70 0 5.0 13.0 0.00 0.00 0.00 44 1011.9
20260509220010 70 349 5.0 12.0 0.00 0.00 0.00 44 1011.9
20260509215510 70 345 5.0 12.0 0.00 0.00 0.00 43 1011.8
20260509215010 71 351 7.0 12.0 0.00 0.00 0.00 43 1011.8
20260509214510 71 337 3.0 12.0 0.00 0.00 0.00 43 1011.8
20260509214010 71 315 5.0 12.0 0.00 0.00 0.00 42 1011.8
20260509213510 71 322 4.0 14.0 0.00 0.00 0.00 42 1011.7
20260509213010 71 324 6.0 17.0 0.00 0.00 0.00 41 1011.7
20260509212510 71 313 7.0 18.0 0.00 0.00 0.00 41 1011.5
20260509212010 72 349 11.0 18.0 0.00 0.00 0.00 40 1011.4
20260509211010 72 355 9.0 14.0 0.00 0.00 0.00 39 1011.3
20260509210510 72 313 7.0 14.0 0.00 0.00 0.00 39 1011.2
20260509210010 72 1 6.0 20.0 0.00 0.00 0.00 39 1011.1
20260509205510 72 337 10.0 20.0 0.00 0.00 0.00 38 1011.1
20260509205010 73 324 10.0 23.0 0.00 0.00 0.00 38 1011.1
20260509204509 73 0 6.0 23.0 0.00 0.00 0.00 38 1011.0
20260509203009 75 327 9.0 21.0 0.00 0.00 0.00 37 1010.7
20260509202509 76 311 7.0 21.0 0.00 0.00 0.00 35 1010.5
20260509202009 76 344 6.0 15.0 0.00 0.00 0.00 36 1010.4
20260509201509 76 344 9.0 14.0 0.00 0.00 0.00 33 1010.3
20260509200509 76 326 7.0 15.0 0.00 0.00 0.00 32 1010.0
20260509195508 77 346 8.0 17.0 0.00 0.00 0.00 30 1009.8
20260509195009 77 340 6.0 17.0 0.00 0.00 0.00 30 1009.8
20260509194009 77 315 3.0 14.0 0.00 0.00 0.00 30 1009.7
20260509193010 77 335 2.0 9.0 0.00 0.00 0.00 29 1009.6
20260509192009 77 338 10.0 15.0 0.00 0.00 0.00 26 1009.5
20260509191509 77 316 6.0 14.0 0.00 0.00 0.00 28 1009.4
20260509191009 78 339 9.0 14.0 0.00 0.00 0.00 26 1009.2
20260509190009 77 9 2.0 12.0 0.00 0.00 0.00 26 1009.1
20260509185509 77 324 6.0 12.0 0.00 0.00 0.00 27 1009.0
20260509185009 77 18 2.0 13.0 0.00 0.00 0.00 28 1009.1
20260509184510 77 266 3.0 14.0 0.00 0.00 0.00 27 1009.1
20260509184010 77 0 5.0 14.0 0.00 0.00 0.00 28 1009.2
20260509183509 77 315 4.0 16.0 0.00 0.00 0.00 26 1009.1
20260509183010 77 347 7.0 16.0 0.00 0.00 0.00 26 1009.1
20260509182509 77 5 7.0 16.0 0.00 0.00 0.00 27 1009.1
20260509182009 77 345 4.0 16.0 0.00 0.00 0.00 27 1009.1
20260509181510 77 350 5.0 10.0 0.00 0.00 0.00 27 1009.0
20260509181011 77 328 3.0 7.0 0.00 0.00 0.00 29 1008.9
20260509180013 76 11 2.0 7.0 0.00 0.00 0.00 29 1008.8
20260509175510 76 250 2.0 7.0 0.00 0.00 0.00 27 1008.9
20260509175009 75 352 2.0 10.0 0.00 0.00 0.00 30 1008.9
20260509174010 75 59 3.0 13.0 0.00 0.00 0.00 27 1008.9
20260509173509 75 17 6.0 13.0 0.00 0.00 0.00 27 1009.0
20260509173010 76 346 5.0 12.0 0.00 0.00 0.00 27 1009.1
20260509172510 75 352 3.0 5.0 0.00 0.00 0.00 29 1009.0
20260509171510 75 50 2.0 9.0 0.00 0.00 0.00 31 1009.2
20260509171010 74 344 2.0 9.0 0.00 0.00 0.00 31 1009.2
20260509170510 74 288 1.0 8.0 0.00 0.00 0.00 30 1009.2
20260509165510 74 355 2.0 9.0 0.00 0.00 0.00 30 1009.2
20260509165010 74 343 4.0 9.0 0.00 0.00 0.00 30 1009.1
20260509164509 74 16 2.0 6.0 0.00 0.00 0.00 31 1009.0
20260509164010 73 161 2.0 9.0 0.00 0.00 0.00 32 1009.0
20260509163010 73 242 3.0 10.0 0.00 0.00 0.00 33 1009.1
20260509162510 72 336 3.0 10.0 0.00 0.00 0.00 33 1009.2
20260509162010 72 284 5.0 10.0 0.00 0.00 0.00 32 1009.1
20260509161512 72 346 6.0 10.0 0.00 0.00 0.00 31 1009.1
20260509161009 71 297 1.0 9.0 0.00 0.00 0.00 34 1009.1
20260509160509 71 248 4.0 9.0 0.00 0.00 0.00 33 1009.1
20260509160009 71 354 3.0 12.0 0.00 0.00 0.00 34 1009.3
20260509155509 70 312 5.0 14.0 0.00 0.00 0.00 33 1009.4
20260509154509 70 307 3.0 13.0 0.00 0.00 0.00 33 1009.8
20260509154009 69 302 2.0 12.0 0.00 0.00 0.00 36 1009.8
20260509153509 69 354 7.0 12.0 0.00 0.00 0.00 34 1009.9
20260509153009 68 333 6.0 12.0 0.00 0.00 0.00 34 1009.9
20260509152509 68 323 2.0 12.0 0.00 0.00 0.00 39 1009.7
20260509152009 67 286 2.0 14.0 0.00 0.00 0.00 40 1009.7
20260509151509 67 346 8.0 14.0 0.00 0.00 0.00 39 1009.8
20260509145509 67 338 10.0 20.0 0.00 0.00 0.00 42 1009.5
20260509144509 66 321 3.0 12.0 0.00 0.00 0.00 45 1009.1
20260509144009 65 213 1.0 3.0 0.00 0.00 0.00 45 1008.2
20260509143509 64 211 1.0 3.0 0.00 0.00 0.00 46 1008.3
20260509142509 63 138 1.0 2.0 0.00 0.00 0.00 50 1008.3
20260509142009 62 138 0.0 2.0 0.00 0.00 0.00 49 1008.4
20260509141009 62 137 0.0 3.0 0.00 0.00 0.00 55 1008.6
20260509140509 61 138 0.0 3.0 0.00 0.00 0.00 57 1008.7
20260509140010 61 138 1.0 3.0 0.00 0.00 0.00 58 1008.6
20260509135509 61 138 1.0 3.0 0.00 0.00 0.00 57 1008.5
20260509135009 60 137 0.0 2.0 0.00 0.00 0.00 59 1008.5
20260509134509 60 138 1.0 2.0 0.00 0.00 0.00 60 1008.4
20260509133509 59 137 0.0 2.0 0.00 0.00 0.00 64 1008.6
20260509133010 58 138 1.0 2.0 0.00 0.00 0.00 64 1008.5
20260509132509 57 138 1.0 2.0 0.00 0.00 0.00 66 1008.5
20260509132009 56 138 1.0 2.0 0.00 0.00 0.00 68 1008.7
20260509131009 55 137 1.0 2.0 0.00 0.00 0.00 70 1008.7
20260509130010 54 138 1.0 3.0 0.00 0.00 0.00 73 1008.5
20260509125510 53 138 1.0 3.0 0.00 0.00 0.00 74 1008.6
20260509125010 52 127 1.0 3.0 0.00 0.00 0.00 75 1008.7
20260509124510 52 331 1.0 2.0 0.00 0.00 0.00 77 1008.7
20260509124010 51 330 1.0 2.0 0.00 0.00 0.00 78 1008.7
20260509123010 49 331 0.0 1.0 0.00 0.00 0.00 79 1008.6
20260509122510 48 331 0.0 1.0 0.00 0.00 0.00 80 1008.5
20260509122010 48 330 1.0 1.0 0.00 0.00 0.00 80 1008.6